[[{"header":{"parameterUnit":"m.s-1","parameterCategory":1,"la1":30.2991,"la2":30.254,"lo1":-89.0895,"lo2":-89.0444,"dx":0.0017,"dy":0.0017,"nx":28,"ny":28,"refTime":"2022-11-08T09:00:00:Z","depth":0,"parameterNumber":2,"parameterNumberName":"U-component_of_WINDS"},"data":[0,0,0,0,0,0,0,0,0,0,0,0,0,0,0,0,0,0,0,0,0,0,0,0,0,0,0,0,0,0,0,0,0,0,0,0,0,0,0,0,0,0,0,0,0,0,0,0,0,0,0,0,0,0,0,0,0,0,-3.0125,-3.0125,0,-3.0172,-3.0173,-3.0173,-3.0093,-3.009,-3.0087,-3.0085,-3.0134,-3.0138,-3.0141,0,0,0,0,0,0,0,0,0,0,0,0,0,-2.9964,-2.9967,-3.0124,-3.0125,-3.0126,-3.0172,-3.0173,-3.0173,-3.0093,-3.009,-3.0087,-3.0084,-3.0133,-3.0137,-3.0142,0,0,0,0,0,0,0,0,0,0,0,0,0,-3.0025,-2.9968,-3.0124,-3.0091,-3.0089,-3.0172,-3.0173,-3.0173,-3.0094,-3.009,-3.0086,-3.0082,-3.0131,-3.0137,-3.0142,-3.026,0,0,-3.016,-3.0163,0,0,0,0,0,0,0,0,-3.0022,-3.0031,-3.0096,-3.0094,-3.0091,-3.0122,-3.0134,-3.0202,-3.0095,-3.0092,-3.0085,-3.008,-3.0133,-3.0139,-3.0157,-3.0262,-3.0264,-3.0161,-3.0164,-3.0167,-3.0168,0,0,0,0,0,0,0,-3.0017,-3.0028,-3.0143,-3.0097,-3.0094,-3.0074,-3.0078,-3.0146,-3.0135,-3.0092,-3.0086,-3.0093,-3.0131,-3.0151,-3.0157,-3.0265,-3.016,-3.0166,-3.0169,-3.0171,-3.0469,-3.0473,0,0,0,0,0,0,-3.0017,-3.0025,-3.0142,-3.0145,-3.0046,-3.008,-3.0085,-3.0116,-3.0134,-3.0133,-3.0097,-3.0089,-3.0143,-3.0151,-3.0159,-3.0298,-3.0166,-3.0172,-3.0175,-3.0465,-3.047,-3.0475,0,0,0,0,0,0,-3.0014,-3.0028,-3.014,-3.0083,-3.0096,-3.0087,-3.0124,-3.012,-3.0139,-3.0137,-3.0135,-3.0119,-3.014,-3.015,-3.0235,-3.0298,-3.0174,-3.018,-3.0459,-3.0466,-3.0472,-3.0577,0,0,0,0,0,0,-3.001,-3.0028,-3.0073,-3.0085,-3.0099,-3.0216,-3.0127,-3.0123,-3.015,-3.014,-3.0158,-3.0157,-3.0138,-3.0227,-3.0241,-3.0304,-3.0184,-3.0454,-3.0462,-3.047,-3.0568,-3.0586,-3.0602,0,0,0,0,0,-3.0004,-3.01,-3.0075,-3.009,-3.0155,-3.022,-3.0228,-3.0204,-3.0155,-3.02,-3.0198,-3.0156,-3.0289,-3.0236,-3.0251,-3.0317,-3.045,-3.046,-3.047,-3.056,-3.0582,-3.0601,0,0,0,0,0,0,-3.0095,-3.0101,-3.0074,-3.0176,-3.0198,-3.0206,-3.0262,-3.0229,-3.0266,-3.0256,-3.0224,-3.0229,-3.032,-3.0327,-3.0268,-3.0431,-3.0361,-3.0374,-3.0424,-3.0446,-3.0463,-3.046,-3.0189,0,0,0,0,0,-3.0127,-3.0179,-3.0181,-3.0272,-3.0284,-3.0272,-3.0299,-3.0279,-3.03,-3.0309,-3.0314,-3.0336,-3.0383,-3.0414,-3.0457,-3.0567,-3.057,-3.062,-3.0637,-3.0651,-3.0664,-3.0723,-3.0745,-3.0508,-3.0508,-3.0507,0,0,-3.0194,-3.0203,-3.0238,-3.029,-3.0305,-3.036,-3.028,-3.0341,-3.0382,-3.0318,-3.0399,-3.0403,-3.0426,-3.0524,-3.0568,-3.0533,-3.0729,-3.0664,-3.0675,-3.068,-3.0735,-3.0758,-3.0778,-3.0514,-3.0513,-3.0512,0,0,-3.0344,-3.0356,-3.0433,-3.0449,-3.0472,-3.0463,-3.0481,-3.0494,-3.0495,-3.0575,-3.0529,-3.0576,-3.0657,-3.0675,-3.0695,-3.0851,-3.0814,-3.0865,-3.0956,-3.1014,-3.1032,-3.1049,-3.1105,-3.1126,-3.0877,-3.0878,-3.0878,0,-3.0424,-3.0505,-3.0476,-3.0541,-3.0565,-3.051,-3.0588,-3.0604,-3.0641,-3.0659,-3.0618,-3.0718,-3.073,-3.0832,-3.087,-3.0887,-3.0908,-3.0864,-3.1032,-3.1048,-3.1063,-3.1116,-3.1138,-3.0884,-3.0883,-3.0883,-3.0882,0,-3.0602,-3.0659,-3.0718,-3.0755,-3.0785,-3.0856,-3.0838,-3.0873,-3.0849,-3.0844,-3.0927,-3.0938,-3.0982,-3.1005,-3.0982,-3.1104,-3.1081,-3.1037,-3.0966,-3.1092,-3.1142,-3.1162,-3.0893,-3.0891,-3.0889,-3.0887,0,0,-3.0812,-3.0831,-3.0854,-3.0869,-3.089,-3.0934,-3.1002,-3.1045,-3.1075,-3.1101,-3.1158,-3.1227,-3.1186,-3.1209,-3.1188,-3.1239,-3.1362,-3.1188,-3.1188,-3.1221,-3.1497,-3.1531,-3.1555,-3.1337,-3.134,-3.1343,-3.1495,0,-3.0962,-3.108,-3.1056,-3.1171,-3.1223,-3.1171,-3.123,-3.1249,-3.1246,-3.129,-3.1286,-3.1336,-3.1278,-3.1291,-3.1339,-3.1337,-3.1417,-3.1325,-3.139,-3.1392,-3.1387,-3.1581,-3.1617,-3.176,-3.1514,-3.1517,-3.152,0,-3.1153,-3.1186,-3.1307,-3.132,-3.1341,-3.1394,-3.1432,-3.1474,-3.1494,-3.1488,-3.1514,-3.1483,-3.155,-3.1477,-3.1569,-3.1507,-3.1532,-3.1535,-3.154,-3.1546,-3.1465,-3.1593,-3.1805,-3.1827,-3.155,-3.1548,-3.1545,0,-3.1295,-3.137,-3.1452,-3.1467,-3.1484,-3.1523,-3.1531,-3.1548,-3.1575,-3.1607,-3.1625,-3.1665,-3.1687,-3.1718,-3.1699,-3.1647,-3.1795,-3.172,-3.1792,-3.1793,-3.1827,-3.1825,-3.2047,-3.1841,-3.1841,-3.184,-3.184,0,-3.1466,-3.1542,-3.1516,-3.1567,-3.1651,-3.1622,-3.1705,-3.1708,-3.1723,-3.1773,-3.1729,-3.1777,-3.1748,-3.1793,-3.1778,-3.1857,-3.1867,-3.1865,-3.186,-3.1869,-3.187,-3.1886,-3.1876,-3.1846,-3.1845,-3.1844,-3.1843,0,-3.164,-3.1626,-3.1712,-3.172,-3.1724,-3.1785,-3.1792,-3.1839,-3.1832,-3.1896,-3.1909,-3.1898,-3.1949,-3.1932,-3.1987,-3.1977,-3.2078,-3.206,-3.2072,-3.2068,-3.2141,-3.2135,-3.2381,-3.2412,-3.2186,-3.2188,-3.219,0,-3.175,-3.1807,-3.1822,-3.1852,-3.1864,-3.1913,-3.1941,-3.1914,-3.1945,-3.1972,-3.2016,-3.2063,-3.21,-3.2184,-3.2181,-3.2222,-3.2206,-3.2289,-3.2212,-3.2219,-3.2208,-3.2205,-3.2211,-3.2305,-3.2308,-3.231,-3.2312,0,-3.1948,-3.1938,-3.198,-3.2019,-3.2053,-3.2083,-3.2109,-3.2136,-3.2111,-3.2147,-3.2199,-3.2227,-3.2283,-3.2331,-3.2368,-3.2376,-3.2341,-3.2336,-3.2355,-3.2366,-3.237,-3.237,-3.2115,-3.2331,-3.2329,-3.2327,-3.2326,-3.2325,-3.2094,-3.2143,-3.2161,-3.2208,-3.2225,-3.225,-3.2294,-3.2293,-3.2335,-3.2379,-3.236,-3.242,-3.2438,-3.2485,-3.2498,-3.2544,-3.2512,-3.254,-3.2547,-3.2554,-3.2564,-3.2362,-3.2551,-3.255,-3.255,-3.2549,-3.2549,0,-3.2291,-3.2299,-3.2343,-3.2381,-3.2418,-3.238,-3.2406,-3.244,-3.2494,-3.2514,-3.255,-3.261,-3.2655,-3.2655,-3.2698,-3.2735,-3.2719,-3.2747,-3.2745,-3.2747,-3.259,-3.257,-3.2759,-3.2759,-3.2759,-3.2759,-3.2759,-3.2759,-3.2397,-3.2478,-3.247,-3.2558,-3.2565,-3.2624,-3.2642,-3.2665,-3.2681,-3.2749,-3.2787,-3.2786,-3.2798,-3.2841,-3.2881,-3.288,-3.2898,-3.2932,-3.2925,-3.2779,-3.2758,-3.2738,-3.2719,-3.2936,-3.2936,-3.3078,-3.3079,-3.308]},{"header":{"parameterUnit":"m.s-1","parameterCategory":1,"la1":30.2991,"la2":30.254,"lo1":-89.0895,"lo2":-89.0444,"dx":0.0017,"dy":0.0017,"nx":28,"ny":28,"refTime":"2022-11-08T09:00:00:Z","depth":0,"parameterNumber":3,"parameterNumberName":"V-component_of_WINDS"},"data":[0,0,0,0,0,0,0,0,0,0,0,0,0,0,0,0,0,0,0,0,0,0,0,0,0,0,0,0,0,0,0,0,0,0,0,0,0,0,0,0,0,0,0,0,0,0,0,0,0,0,0,0,0,0,0,0,0,0,-5.1405,-5.1406,0,-5.1509,-5.1511,-5.1512,-5.1453,-5.145,-5.1447,-5.1444,-5.1547,-5.1552,-5.1558,0,0,0,0,0,0,0,0,0,0,0,0,0,-5.1149,-5.1154,-5.1405,-5.1406,-5.1407,-5.1509,-5.1511,-5.1512,-5.1453,-5.145,-5.1446,-5.1443,-5.1545,-5.1552,-5.1558,0,0,0,0,0,0,0,0,0,0,0,0,0,-5.1257,-5.1155,-5.1404,-5.139,-5.139,-5.1509,-5.1511,-5.1512,-5.1454,-5.145,-5.1445,-5.1441,-5.1543,-5.1551,-5.1559,-5.1696,0,0,-5.1584,-5.1587,0,0,0,0,0,0,0,0,-5.1251,-5.1267,-5.1391,-5.1392,-5.1392,-5.1464,-5.1458,-5.1574,-5.1455,-5.143,-5.1444,-5.1439,-5.1523,-5.1532,-5.1561,-5.1701,-5.1705,-5.1585,-5.159,-5.1593,-5.1595,0,0,0,0,0,0,0,-5.1244,-5.1262,-5.1446,-5.1393,-5.1393,-5.1377,-5.1388,-5.148,-5.1499,-5.1432,-5.1428,-5.1441,-5.1522,-5.1553,-5.1563,-5.1707,-5.1584,-5.1592,-5.1597,-5.16,-5.1964,-5.1968,0,0,0,0,0,0,-5.1238,-5.1256,-5.1443,-5.1449,-5.1309,-5.1385,-5.1397,-5.1445,-5.1498,-5.1502,-5.1445,-5.1438,-5.1542,-5.1554,-5.1566,-5.173,-5.1593,-5.1601,-5.1605,-5.1959,-5.1965,-5.197,0,0,0,0,0,0,-5.1233,-5.1255,-5.1438,-5.1352,-5.1374,-5.1394,-5.1448,-5.1449,-5.1481,-5.1508,-5.151,-5.1474,-5.1539,-5.1555,-5.1665,-5.1733,-5.1604,-5.1612,-5.1953,-5.1961,-5.1967,-5.2059,0,0,0,0,0,0,-5.1226,-5.1254,-5.1307,-5.1353,-5.1379,-5.1537,-5.1453,-5.1454,-5.1496,-5.1488,-5.1536,-5.154,-5.1536,-5.1653,-5.1673,-5.1742,-5.1618,-5.1947,-5.1957,-5.1965,-5.205,-5.2069,-5.2085,0,0,0,0,0,-5.1217,-5.1328,-5.131,-5.1333,-5.1446,-5.1541,-5.1555,-5.155,-5.1501,-5.1555,-5.1572,-5.1538,-5.1722,-5.1664,-5.1686,-5.1759,-5.1943,-5.1954,-5.1964,-5.2043,-5.2065,-5.2084,0,0,0,0,0,0,-5.1288,-5.1334,-5.1314,-5.1444,-5.1489,-5.1531,-5.1598,-5.1574,-5.1633,-5.1623,-5.1613,-5.1625,-5.1739,-5.176,-5.1694,-5.1894,-5.1825,-5.184,-5.1877,-5.1898,-5.1915,-5.1908,-5.1625,0,0,0,0,0,-5.1319,-5.1393,-5.1429,-5.154,-5.1563,-5.1577,-5.1618,-5.1611,-5.1656,-5.1674,-5.1699,-5.1743,-5.1811,-5.1856,-5.1919,-5.2053,-5.2062,-5.2114,-5.2131,-5.2145,-5.2158,-5.223,-5.2253,-5.2005,-5.2005,-5.2005,0,0,-5.1383,-5.1417,-5.1465,-5.1555,-5.1589,-5.1665,-5.1593,-5.1676,-5.1732,-5.1686,-5.1792,-5.1812,-5.186,-5.1982,-5.2037,-5.2003,-5.2229,-5.2158,-5.2169,-5.2176,-5.2243,-5.2267,-5.2288,-5.2013,-5.2011,-5.201,0,0,-5.1539,-5.1573,-5.167,-5.1705,-5.1758,-5.1766,-5.1789,-5.1835,-5.1847,-5.1953,-5.192,-5.1985,-5.2102,-5.2138,-5.2171,-5.2341,-5.2312,-5.2362,-5.2451,-5.2521,-5.2541,-5.2558,-5.2618,-5.264,-5.2375,-5.2375,-5.2375,0,-5.1612,-5.1727,-5.1721,-5.1808,-5.1848,-5.1811,-5.1908,-5.1942,-5.2013,-5.204,-5.2001,-5.2148,-5.2177,-5.2307,-5.2349,-5.2377,-5.2402,-5.2356,-5.2539,-5.2556,-5.2572,-5.2629,-5.2652,-5.2381,-5.238,-5.238,-5.2379,0,-5.1814,-5.1894,-5.1965,-5.2036,-5.2084,-5.2175,-5.2181,-5.223,-5.2219,-5.2231,-5.2338,-5.2373,-5.2443,-5.2473,-5.2462,-5.2602,-5.2579,-5.254,-5.247,-5.2601,-5.2655,-5.2677,-5.2389,-5.2387,-5.2385,-5.2384,0,0,-5.2018,-5.2085,-5.2111,-5.2143,-5.2198,-5.2259,-5.2347,-5.2418,-5.246,-5.2509,-5.2582,-5.2682,-5.2646,-5.2684,-5.2677,-5.2738,-5.287,-5.2691,-5.2692,-5.2723,-5.3025,-5.3055,-5.308,-5.2851,-5.2855,-5.2859,-5.3021,0,-5.2178,-5.2335,-5.2333,-5.2477,-5.2551,-5.2517,-5.2594,-5.2635,-5.2648,-5.2711,-5.2725,-5.2796,-5.2743,-5.2766,-5.2825,-5.2842,-5.2931,-5.283,-5.2918,-5.2921,-5.2908,-5.3108,-5.314,-5.3292,-5.3042,-5.3046,-5.3048,0,-5.2385,-5.2444,-5.2597,-5.2641,-5.2672,-5.2742,-5.2805,-5.2866,-5.2912,-5.2917,-5.296,-5.2943,-5.3031,-5.2959,-5.308,-5.3011,-5.3047,-5.306,-5.3066,-5.3074,-5.2993,-5.3122,-5.334,-5.3363,-5.3081,-5.3079,-5.3076,0,-5.2519,-5.2635,-5.2742,-5.277,-5.2825,-5.2874,-5.2899,-5.2941,-5.2983,-5.3038,-5.3065,-5.3129,-5.3164,-5.3214,-5.3214,-5.3161,-5.3336,-5.3263,-5.3342,-5.3342,-5.338,-5.3378,-5.3607,-5.3403,-5.3403,-5.3403,-5.3402,0,-5.2698,-5.2793,-5.2803,-5.2868,-5.2973,-5.2968,-5.3071,-5.3091,-5.3129,-5.3196,-5.317,-5.3233,-5.3229,-5.3293,-5.3293,-5.3393,-5.3409,-5.3415,-5.3414,-5.3418,-5.3417,-5.3441,-5.343,-5.3409,-5.3407,-5.3406,-5.3405,0,-5.2865,-5.2875,-5.2989,-5.3032,-5.3045,-5.3121,-5.3156,-5.3218,-5.3229,-5.3314,-5.3334,-5.3351,-5.3425,-5.343,-5.3514,-5.3514,-5.3636,-5.3623,-5.3621,-5.3619,-5.3697,-5.3689,-5.395,-5.3983,-5.3758,-5.376,-5.3762,0,-5.2978,-5.3051,-5.3102,-5.3146,-5.3174,-5.3246,-5.3289,-5.3287,-5.3333,-5.339,-5.3445,-5.3516,-5.3574,-5.3693,-5.3711,-5.3776,-5.3764,-5.3851,-5.3774,-5.3775,-5.3766,-5.3761,-5.3768,-5.3866,-5.3869,-5.3871,-5.3872,0,-5.3179,-5.318,-5.3245,-5.3312,-5.3365,-5.3417,-5.3465,-5.3502,-5.3505,-5.3558,-5.3634,-5.3679,-5.3766,-5.3837,-5.39,-5.3923,-5.3899,-5.3897,-5.3918,-5.3923,-5.3919,-5.3922,-5.3662,-5.3891,-5.3889,-5.3887,-5.3886,-5.3886,-5.3322,-5.3385,-5.3431,-5.3504,-5.354,-5.3586,-5.3646,-5.3665,-5.3729,-5.3801,-5.3795,-5.3879,-5.3922,-5.4004,-5.4033,-5.4098,-5.4068,-5.4099,-5.4107,-5.4115,-5.4123,-5.3908,-5.4109,-5.4108,-5.4108,-5.4108,-5.4107,0,-5.3521,-5.3549,-5.3616,-5.3685,-5.3742,-5.3715,-5.3767,-5.3816,-5.3891,-5.3934,-5.3991,-5.4078,-5.4147,-5.4172,-5.4238,-5.4285,-5.4275,-5.4303,-5.4299,-5.4305,-5.4146,-5.4121,-5.4309,-5.4309,-5.4309,-5.4309,-5.4309,-5.4309,-5.3631,-5.3736,-5.3743,-5.3865,-5.3892,-5.3976,-5.4008,-5.4049,-5.4084,-5.4183,-5.424,-5.4256,-5.4291,-5.436,-5.4422,-5.4427,-5.4452,-5.4485,-5.4485,-5.4336,-5.4316,-5.4297,-5.4273,-5.4491,-5.4491,-5.4639,-5.464,-5.4641]}]]